Погода в Агадире

Марокко     30°23′30″N   9°33′24″W
темп.,
°C
ветер,
м/с
пор.,
м/с
влажн.,
%
обл.,
%
осадки,
мм/ч
давл.,
гПа
погр.,
м
9 мая, вс
вс900:00+15вюв239361 0.0 1016175
03:00+15вюв238881 0.0 1015338
06:00+16юв118083 0.0 1015403
09:00+19ююз22604 0.0 1016838
12:00+23юз65412 0.0 10141165
15:00+26зюз55305 0.0 10121060
18:00+24с24360 0.0 1012641
21:00+16св34720 0.0 1016166
10 мая, пн
пн1000:00+15всв22831 0.0 101668
03:00+14св11873 0.0 101555
06:00+13в01882 0.0 101545
09:00+19юз226324 0.0 1015874
12:00+25юз45400 0.0 10141292
15:00+28сз98250 0.0 10121511
18:00+24сз67350 0.0 1013759
21:00+17всв56610 0.0 1017183
11 мая, вт
вт1100:00+14в33780 0.0 101896
03:00+13юз01800 0.0 101766
06:00+12юз11810 0.0 101764
09:00+18ююз21530 0.0 1017620
12:00+24юз43360 0.0 1016927
15:00+24ююз43380 0.0 1014641
18:00+22ююв43420 0.0 1015459
21:00+14вюв45840 0.0 1018157
12 мая, ср
ср1200:00+14з01840 0.0 101861
03:00+14зюз11794 0.0 101645
06:00+13з11785 0.0 101736
09:00+20юз21500 0.0 1017424
12:00+26юз533717 0.0 1016731
15:00+29ююз432980 0.0 1014698
18:00+23ююв4343100 0.0 1015384
21:00+16вюв347538 0.0 1017104
13 мая, чт
чт1300:00+15в017469 0.0 101647
03:00+15з2270100 0.0 101439
06:00+15зюз1172100 0.0 101440
09:00+19ююз2158100 0.0 1014415
12:00+26юз4337100 0.0 1013844
15:00+27ююз433473 0.0 1010679
18:00+22ююв434956 0.0 1011466
21:00+15вюв458718 0.0 1014238